Starlink 32230

operational
NORAD ID: 60366 Int'l Des: 2024-138 Owner: SPXS Country: US Constellation: starlink
LEOCIRCULAR

About Starlink 32230

Description loading...

Live Position

Loading 3D Globe...

Upcoming Passes

Altitude History

Altitude vs Time

uPlot chart will show altitude changes over time

Two-Line Element Set

1 60366U 24138M 25260.59627310 -.00000592 00000-0 -78698-5 0 9998
2 60366 53.1610 33.7887 0001073 69.9423 290.1694 15.30195679 64129
Epoch: Sep 17, 2025 • Age: 24 hours

Current Status

Altitude 482.0 km
Velocity 7.62 km/s
Sub-Earth Point -22.06°S, 7.94°E
Launch Date Aug 4, 2024
Age 1.1 years
Type internet

Technical Details

Classification Payload
Mass 730.00 kg
Dry Mass 700.00 kg
Total Mass 730.00 kg
Length 0.30 m
Diameter 4.10 m
Span 29.00 m
Shape Box + pan
Manufacturer SPXS
Bus Type Starlink V2M
Phase Status In Orbit
Owner/State SPXS/US

Large Constellations

Loading constellations...